Location: Charmois
(47.4974°N, 3.4325°E)
Time: 14:28:52
(UTC+00:00)

Daily predictions for brighter satellites

Satellite Brightness Start Highest point End
(mag) Time Altitude Azimuth Time Altitude Azimuth Time Altitude Azimuth
CZ-4B R/B 3.3 16:52:03 10° SSE 16:57:32 67° ENE 17:03:08 10° N
PAYLOAD B 4.3 16:52:38 10° SSE 16:58:08 89° WSW 17:03:42 10° NNW
CZ-2C R/B 4.0 16:55:53 10° ESE 17:00:19 28° ENE 17:04:57 10° N
Cosmos 1603 3.7 16:58:20 10° NNW 17:04:04 75° ENE 17:09:48 10° SSE
Cosmos 2297 Rocket 4.0 16:59:28 10° WSW 17:04:11 26° NW 17:08:56 10° N
Cosmos 1626 2.2 17:01:02 10° S 17:04:40 59° E 17:08:19 10° NNE
YAOGAN 6 3.7 17:02:57 10° S 17:06:23 49° W 17:09:53 10° NNW
CZ-2D R/B 4.3 17:04:23 10° ESE 17:07:31 24° ENE 17:10:40 10° NNE
RESURS DK-1 2.4 17:03:48 10° SSW 17:07:56 83° ESE 17:12:06 10° NNE
Cosmos 2058 Rocket 4.3 17:04:55 10° NNE 17:08:28 22° ENE 17:12:00 10° ESE
H-2A R/B 3.2 17:05:59 10° ESE 17:09:28 19° ENE 17:13:00 10° NNE
FengYun 1-2 T 4.2 17:04:10 10° SSE 17:09:40 69° ENE 17:15:15 10° N
ATLAS 2AS CENTAUR R/B 3.4 17:04:25 10° SW 17:12:20 69° NW 17:20:08 10° NE
SL-14 R/B 3.3 17:09:37 10° S 17:13:24 57° E 17:17:15 10° NNE
Cosmos 1400 Rocket 4.0 17:10:48 10° NNW 17:14:47 48° W 17:18:42 10° S
Meteor 2-10 Rocket 4.3 17:10:22 10° N 17:15:21 32° ENE 17:20:07 10° SE
CREW DRAGON DEMO-1 DEB 3.7 17:13:27 10° WNW 17:16:09 33° N 17:18:29 12° ENE
Meteor 2-5 Rocket 3.7 17:13:38 10° S 17:19:09 66° E 17:24:39 10° NNE
ATLAS 5 CENTAUR R/B 1.4 17:15:50 10° SSW 17:19:49 72° SE 17:24:19 10° NE
Cosmos 773 Rocket 4.0 17:15:05 10° NNW 17:20:13 58° ENE 17:25:16 10° SE
CZ-4B R/B 2.2 17:19:50 10° NNE 17:22:56 31° E 17:25:56 10° SSE
SeaSat 1 4.4 17:20:22 10° N 17:24:16 24° NW 17:28:10 10° W
Landsat 5 3.9 17:22:43 10° N 17:26:39 58° WNW 17:30:26 10° SSW
Cosmos 1726 Rocket 3.7 17:22:44 10° N 17:26:58 48° ENE 17:31:13 10° SSE
Cosmos 2263 Rocket 2.3 17:32:29 10° SSW 17:38:11 81° WNW 17:43:53 10° NNE
Cosmos 2279 Rocket 4.0 17:32:46 10° N 17:39:04 76° E 17:45:20 10° SSE
Aureole 3 4.2 17:37:35 10° NNE 17:40:23 20° ENE 17:40:37 20° ENE
BREEZE-M DEB (TANK) 4.0 17:38:57 10° WNW 17:42:29 32° SW 17:44:37 10° SSE
USA 234 3.9 17:37:29 15° ENE 17:42:32 40° N 17:48:34 10° WNW
Cosmos 1455 3.2 17:39:29 10° NNE 17:42:36 24° ENE 17:45:44 10° SE
SMAP 4.4 17:38:31 10° S 17:42:57 44° W 17:47:25 10° NNW
COSMO-SKYMED 1 2.7 17:39:43 10° NNE 17:44:00 53° E 17:48:15 10° S
COSMOS 2455 3.2 17:39:09 10° S 17:44:49 45° ESE 17:49:35 15° NE
Cosmos 1300 3.2 17:42:31 10° NNW 17:46:19 64° W 17:50:05 10° S
Cosmos 1939 Rocket 2.9 17:42:36 10° SSE 17:46:45 86° W 17:50:52 10° NNW
Cosmos 1689 Rocket 3.7 17:50:14 18° SE 17:50:14 18° SE 17:51:33 10° SSE
Okean-O 3.0 17:46:01 10° SE 17:50:08 40° ENE 17:54:19 10° N
Cosmos 1538 Rocket 3.9 17:45:31 10° NNW 17:50:40 62° ENE 17:55:46 10° SE
ATLAS 3B R/B 4.1 17:48:25 10° NW 17:54:56 43° WSW 18:01:40 10° S
Okean O Rocket 3.0 17:50:44 10° S 17:54:57 42° W 17:59:11 10° NNW
EXPRESS MD2 4.3 17:46:55 10° WNW 17:55:50 84° SSW 17:59:10 18° ESE
ARGOS 3.7 17:51:46 10° SE 17:56:33 35° ENE 18:01:22 10° N
Aureole 2 Rocket 3.3 17:54:16 10° SSE 17:56:23 25° ESE 17:56:23 25° ESE
Cosmos 1777 Rocket 4.0 17:51:40 10° S 17:56:53 69° ESE 18:02:07 10° NNE
CZ-4 R/B 1.5 17:53:00 10° SSE 17:56:58 49° ENE 18:00:55 10° N
MOS 1 Rocket 3.1 17:53:02 10° NNE 17:57:18 54° E 18:01:29 10° S
Meteor 1-24 Rocket 3.7 17:52:01 10° SSW 17:57:23 77° WNW 18:02:42 10° N
Cosmos 1943 4.2 17:52:21 10° NW 17:57:48 50° WSW 18:03:13 10° S
OPS 8737 4.4 17:56:50 10° NW 18:00:01 83° NE 18:04:07 10° SE
Cosmos 1315 Rocket 4.1 17:56:56 10° NNW 18:00:43 43° W 18:04:31 10° SSW
Feng Yun 1-1 Rocket 4.3 17:55:55 10° SSE 18:01:20 82° WSW 18:06:54 10° NNW
CZ-4 R/B 4.4 18:00:17 10° SSE 18:04:25 87° ENE 18:08:35 10° NNW
CZ-2C R/B 3.8 18:04:57 23° E 18:04:57 23° E 18:09:09 10° SE
ERS-2 2.1 18:03:34 22° NNE 18:05:46 55° ESE 18:09:19 10° S
Cosmos 1844 4.3 18:02:54 10° SSE 18:07:55 34° ESE 18:09:55 27° ENE
Cosmos 2082 Rocket 4.1 18:07:31 10° N 18:09:49 13° NNE 18:09:49 13° NNE
Cosmos 1833 Rocket 4.1 18:06:54 10° N 18:10:32 18° NE 18:10:32 18° NE
BREEZE-M DEB (TANK) 2.1 18:08:58 10° WNW 18:11:06 49° N 18:11:06 49° N
Cosmos 489 Rocket 4.5 18:05:57 10° NNW 18:12:15 60° ENE 18:18:30 10° SE
SJ-11-01 4.3 18:10:16 10° SSE 18:14:52 57° ENE 18:19:28 10° N
H-2A R/B 4.0 18:14:21 10° N 18:18:14 29° WNW 18:22:02 10° SW
YAOGAN 1 2.4 18:13:59 10° SSE 18:18:17 72° ENE 18:22:36 10° N
Cosmos 1892 Rocket 3.8 18:15:11 10° SSW 18:19:31 71° W 18:23:52 10° N
Cosmos 1092 Rocket 4.2 18:14:51 10° SSE 18:20:40 44° E 18:26:27 10° NNE
IRS-1C Rocket 4.3 18:16:17 10° S 18:21:31 73° WSW 18:26:48 10° NNW
NOAA 15 4.5 18:18:30 10° SSE 18:23:45 83° ENE 18:29:03 10° NNW
Meteor 1-21 Rocket 4.2 18:19:24 10° S 18:24:46 55° E 18:29:34 13° NNE
NOSS 3-1 (C) 4.3 18:19:35 10° NW 18:26:31 48° NE 18:30:09 30° E
X-37B 2.6 18:27:09 10° SSW 18:28:57 20° S 18:28:57 20° S
CZ-4C R/B 3.8 18:25:08 10° W 18:29:47 27° NNW 18:33:52 15° NNE
ISS -2.4 18:28:11 10° SSW 18:30:32 30° S 18:30:32 30° S
SKYMED 2 4.4 18:27:48 10° N 18:32:02 50° WNW 18:36:13 10° SW
Cosmos 1844 Rocket 2.6 18:27:24 10° SSW 18:33:00 65° ESE 18:35:26 34° NE
Lacrosse 5 1.7 18:28:47 10° NW 18:33:52 80° NE 18:35:29 44° ESE
Helios 1A Rocket 2.8 18:32:54 10° SSE 18:37:03 88° WSW 18:41:13 10° NNW
Nadezhda 4 Rocket 4.0 18:32:46 10° S 18:39:03 87° W 18:45:18 10° N
DMSP B5D1-3 4.4 18:36:28 25° NNE 18:39:29 69° ESE 18:44:33 10° S
SJ 16-02 1.2 18:35:24 10° SSW 18:39:47 74° ESE 18:40:20 64° NE
CZ-2C R/B 4.0 18:34:47 10° S 18:39:52 50° W 18:45:17 10° NNW
USA 229 DEB 4.2 18:36:01 10° NW 18:42:53 45° NE 18:44:37 39° ENE
USA 229 4.2 18:36:07 10° NW 18:42:58 44° NE 18:44:41 39° ENE
USA 281 4.4 18:47:26 24° NNE 18:47:26 24° NNE 18:51:32 10° N
Cosmos 2058 Rocket 4.4 18:42:24 10° NNW 18:46:38 42° W 18:50:52 10° SSW
H-2A R/B 2.2 18:43:25 10° S 18:48:21 68° WSW 18:53:27 10° NNW
USA 267 3.6 18:48:30 40° ESE 18:49:28 43° SE 18:55:36 10° SSW
Cosmos 923 Rocket 3.9 18:47:04 10° NNW 18:52:28 90° ENE 18:55:17 29° SSE
CZ-4B R/B 4.1 18:52:30 10° NNW 18:54:55 18° WNW 18:57:16 10° WSW
CSL-04 Rocket 3.6 18:50:45 10° SSE 18:56:08 85° WSW 19:01:40 10° NNW
NOSS 3-1 (A) 4.2 18:51:31 10° NW 18:58:28 48° NE 18:59:42 45° ENE
Cosmos 1680 Rocket 3.3 18:54:57 10° NNW 19:00:15 81° ENE 19:00:39 75° ESE
Cosmos 2344 4.2 18:54:33 10° NW 19:03:31 65° NE 19:08:27 38° ESE
Cosmos 1818 3.5 18:59:14 10° SW 19:04:40 85° NW 19:05:20 70° NNE
ATLAS 2AS CENTAUR R/B 4.3 18:57:59 10° W 19:04:45 30° NNW 19:08:51 19° NNE
ATLAS 5 CENTAUR R/B 3.4 19:01:32 10° W 19:04:58 23° NNW 19:06:01 21° N
Cosmos 158 Rocket 4.3 19:00:17 10° NNW 19:05:34 66° WSW 19:09:28 19° S
Cosmos 2098 Rocket 4.2 18:59:29 10° S 19:06:22 64° E 19:13:44 10° NNE
Cosmos 1553 Rocket 4.5 19:05:16 10° N 19:09:58 45° NNE 19:09:58 45° NNE
Cosmos 1626 Rocket 4.1 19:08:47 10° SSW 19:13:04 56° WNW 19:13:07 56° WNW
Cosmos 2026 Rocket 3.8 19:10:14 10° S 19:16:20 86° E 19:18:42 41° N
Cosmos 1455 4.2 19:14:56 10° NNW 19:18:12 27° W 19:21:27 10° SSW
Cosmos 2263 Rocket 4.5 19:19:07 10° W 19:23:02 19° NW 19:26:44 11° N
USA 234 3.2 19:24:50 67° NE 19:24:59 67° NNE 19:31:29 10° NW
COSMOS 2406 4.2 19:21:57 10° NNW 19:25:26 36° N 19:25:26 36° N
Iridium 4 Rocket 4.2 19:24:02 10° N 19:29:41 58° W 19:34:55 10° SSW
COSMOS 2455 3.9 19:25:10 10° WSW 19:30:50 41° NW 19:32:46 32° N
CZ-4 R/B 4.3 19:29:36 10° SW 19:32:15 17° W 19:34:54 10° NW
ARGOS 4.4 19:31:48 10° SSW 19:36:46 38° W 19:41:46 10° NNW
CZ-2C R/B 3.4 19:46:27 50° WSW 19:46:27 50° WSW 19:50:53 10° SSW
Cosmos 1833 Rocket 4.3 19:49:57 10° NNW 19:52:16 26° NNW 19:52:16 26° NNW
Cosmos 2082 Rocket 4.2 19:50:07 10° NNW 19:51:41 18° NNW 19:51:41 18° NNW
Lacrosse 5 4.2 20:12:26 10° WNW 20:14:44 20° W 20:14:44 20° W
NOSS 3-1 (C) 4.4 20:10:23 10° NW 20:17:37 60° WSW 20:17:37 60° WSW
SJ 16-02 4.3 20:16:15 10° W 20:17:23 13° WNW 20:17:23 13° WNW
